G6FCI Weather Reports


time (UTC)temp
C
wind
direction
speed
KPH
gust
KPH
rain 1hr
cm
rain 24hr
cm
rain mn
cm
humidity
%
barometer
mb
20260506031803 6 50 1.6 11.3 0.00 0.03 0.00 81 1015.8
20260506030903 6 47 3.2 9.7 0.00 0.03 0.00 81 1015.8
20260506030003 6 46 4.8 9.7 0.00 0.03 0.00 81 1015.8
20260506025403 6 49 4.8 12.9 0.00 0.03 0.00 81 1015.9
20260506024503 6 52 3.2 8.0 0.00 0.03 0.00 81 1016.0
20260506023603 6 48 4.8 12.9 0.00 0.03 0.00 81 1016.0
20260506022703 6 43 4.8 11.3 0.00 0.03 0.00 81 1016.0
20260506021803 6 36 4.8 12.9 0.00 0.03 0.00 82 1016.1
20260506020903 6 33 4.8 12.9 0.00 0.03 0.00 81 1016.1
20260506020003 6 37 6.4 17.7 0.00 0.03 0.00 82 1015.9
20260506015424 6 33 6.4 17.7 0.00 0.03 0.00 82 1015.9
20260506014503 7 31 4.8 14.5 0.00 0.03 0.00 82 1015.9
20260506013624 7 33 3.2 8.0 0.00 0.03 0.00 82 1016.0
20260506012703 7 28 3.2 9.7 0.00 0.03 0.00 82 1015.8
20260506011803 7 35 3.2 8.0 0.00 0.03 0.00 82 1016.0
20260506010924 7 16 3.2 11.3 0.00 0.03 0.00 82 1016.0
20260506010003 7 20 3.2 9.7 0.00 0.03 0.00 82 1016.0
20260506005403 7 23 3.2 12.9 0.00 0.03 0.00 82 1016.1
20260506004504 7 27 4.8 11.3 0.00 0.03 0.00 82 1016.0
20260506003603 7 33 4.8 11.3 0.00 0.03 0.00 82 1016.1
20260506002703 7 21 4.8 11.3 0.00 0.03 0.00 82 1016.1
20260506001803 7 30 4.8 12.9 0.00 0.03 0.00 82 1016.1
20260506000903 7 33 4.8 16.1 0.00 0.03 0.00 82 1016.0
20260506000024 7 32 3.2 9.7 0.00 0.03 0.00 83 1016.0
20260505235424 7 30 4.8 11.3 0.00 0.03 0.00 83 1016.0
20260505234503 7 35 4.8 14.5 0.00 0.03 0.00 83 1015.9
20260505233603 7 30 4.8 9.7 0.00 0.03 0.00 83 1015.9
20260505232703 7 32 4.8 9.7 0.00 0.03 0.00 83 1015.9
20260505231803 7 28 3.2 8.0 0.00 0.03 0.00 83 1016.0
20260505230903 7 30 3.2 12.9 0.03 0.03 0.00 83 1016.0
20260505230004 7 31 4.8 12.9 0.03 0.03 0.00 83 1016.0
20260505225403 7 34 4.8 14.5 0.03 0.03 0.03 83 1016.0
20260505224503 7 34 4.8 9.7 0.03 0.03 0.03 83 1016.0
20260505223603 7 39 4.8 12.9 0.03 0.03 0.03 83 1015.9
20260505222703 7 37 4.8 12.9 0.03 0.03 0.03 82 1016.0
20260505221824 8 40 4.8 14.5 0.03 0.03 0.03 82 1016.1
20260505220903 8 39 4.8 17.7 0.00 0.00 0.00 82 1016.1
20260505220003 8 34 6.4 14.5 0.00 0.00 0.00 82 1015.9
20260505215403 8 31 4.8 12.9 0.00 0.00 0.00 82 1016.0
20260505214503 8 35 4.8 12.9 0.00 0.00 0.00 82 1015.9
20260505213624 8 32 4.8 12.9 0.00 0.00 0.00 82 1015.8
20260505212703 8 37 6.4 14.5 0.00 0.00 0.00 82 1015.8
20260505211803 9 29 8.0 19.3 0.00 0.00 0.00 76 1015.7
20260505210903 8 32 6.4 19.3 0.00 0.00 0.00 82 1015.8
20260505210003 8 30 6.4 16.1 0.00 0.00 0.00 82 1015.8
20260505205403 8 25 6.4 16.1 0.00 0.00 0.00 82 1015.7
20260505204503 8 28 8.0 17.7 0.00 0.00 0.00 82 1015.7
20260505203603 8 33 8.0 16.1 0.00 0.00 0.00 82 1015.7
20260505202703 9 31 8.0 17.7 0.00 0.00 0.00 82 1015.7
20260505201824 9 35 8.0 20.9 0.00 0.00 0.00 78 1015.7
20260505200903 10 36 8.0 17.7 0.00 0.00 0.00 82 1015.7
20260505200003 9 35 6.4 16.1 0.00 0.00 0.00 82 1015.7
20260505194503 10 30 8.0 19.3 0.00 0.00 0.00 81 1015.5
20260505193624 10 28 8.0 17.7 0.00 0.00 0.00 81 1015.4
20260505192703 10 32 8.0 19.3 0.00 0.00 0.00 82 1015.2
20260505191803 10 39 8.0 19.3 0.00 0.00 0.00 81 1015.1
20260505190903 10 36 9.7 25.7 0.00 0.00 0.00 81 1015.0
20260505190003 10 36 9.7 17.7 0.00 0.00 0.00 81 1015.0
20260505185403 10 37 11.3 24.1 0.00 0.00 0.00 81 1014.9
20260505184503 11 33 9.7 24.1 0.00 0.00 0.00 80 1014.9
20260505183603 11 33 6.4 17.7 0.00 0.00 0.00 80 1014.7
20260505182703 12 354 6.4 14.5 0.00 0.00 0.00 80 1014.6
20260505181803 12 287 4.8 12.9 0.00 0.00 0.00 80 1014.5
20260505180924 12 285 9.7 17.7 0.00 0.00 0.00 79 1014.5
20260505180003 12 286 9.7 20.9 0.00 0.00 0.00 81 1014.5
20260505175403 12 282 11.3 20.9 0.00 0.00 0.00 81 1014.5
20260505174524 12 291 12.9 24.1 0.00 0.00 0.00 81 1014.5
20260505173603 12 290 12.9 25.7 0.00 0.00 0.00 80 1014.6
20260505172724 12 283 12.9 24.1 0.00 0.00 0.00 80 1014.5
20260505171803 12 281 14.5 29.0 0.00 0.00 0.00 80 1014.7
20260505170903 13 290 12.9 29.0 0.00 0.00 0.00 80 1014.6
20260505170003 12 282 12.9 24.1 0.00 0.00 0.00 80 1014.7
20260505165403 12 287 14.5 25.7 0.00 0.00 0.00 80 1014.7
20260505164503 12 286 12.9 27.4 0.00 0.00 0.00 80 1014.7
20260505163603 12 277 14.5 27.4 0.00 0.00 0.00 80 1014.7
20260505162703 13 281 11.3 29.0 0.00 0.00 0.00 80 1014.9
20260505161803 14 281 11.3 22.5 0.00 0.00 0.00 80 1014.7
20260505160903 13 268 9.7 20.9 0.00 0.00 0.00 80 1014.7
20260505152703 13 267 9.7 24.1 0.00 0.00 0.00 80 1014.7
20260505151803 13 255 9.7 20.9 0.00 0.00 0.00 80 1014.7
20260505150903 15 266 9.7 22.5 0.00 0.00 0.00 78 1014.7
20260505124503 12 271 8.0 22.5 0.00 0.00 0.00 78 1015.0
20260505123603 12 288 6.4 16.1 0.00 0.00 0.00 78 1015.0
20260505122703 12 281 9.7 22.5 0.00 0.00 0.00 78 1015.2
20260505121803 13 276 9.7 19.3 0.00 0.00 0.00 75 1015.1
20260505120903 12 286 11.3 19.3 0.00 0.00 0.00 78 1015.2
20260505120024 12 267 8.0 19.3 0.00 0.00 0.00 78 1015.2
20260505115424 12 280 9.7 20.9 0.00 0.00 0.00 78 1015.1
20260505114524 12 278 9.7 20.9 0.00 0.00 0.00 77 1015.2
20260505113603 12 275 11.3 22.5 0.00 0.00 0.00 77 1015.2
20260505112703 12 266 9.7 19.3 0.00 0.00 0.00 77 1015.2
20260505111803 12 269 9.7 20.9 0.00 0.00 0.00 76 1015.1
20260505110924 12 278 9.7 22.5 0.00 0.00 0.00 74 1015.1
20260505101824 12 286 11.3 22.5 0.00 0.00 0.00 76 1015.1
20260505100924 12 283 12.9 22.5 0.00 0.00 0.00 75 1015.2
20260505100003 12 272 11.3 24.1 0.00 0.00 0.00 76 1015.2
20260505095403 12 262 11.3 24.1 0.00 0.00 0.00 76 1015.2
20260505094524 12 250 9.7 20.9 0.00 0.00 0.00 76 1015.1
20260505093603 12 267 9.7 19.3 0.00 0.00 0.00 76 1015.2
20260505092703 12 261 8.0 19.3 0.00 0.00 0.00 77 1015.1
20260505091803 12 245 6.4 16.1 0.00 0.00 0.00 77 1015.1
20260505090903 11 238 6.4 14.5 0.00 0.00 0.00 76 1015.1
20260505090003 11 251 8.0 19.3 0.00 0.00 0.00 76 1015.2
20260505085403 11 256 8.0 20.9 0.00 0.00 0.00 76 1015.2
20260505084503 11 239 6.4 17.7 0.00 0.00 0.00 76 1015.2
20260505083603 11 244 9.7 19.3 0.00 0.00 0.00 75 1015.3
20260505082703 10 282 11.3 22.5 0.00 0.00 0.00 76 1015.2
20260505081803 11 279 9.7 22.5 0.00 0.00 0.00 72 1015.2
20260505080924 11 261 6.4 14.5 0.00 0.00 0.00 76 1015.2
20260505080003 10 276 6.4 17.7 0.00 0.00 0.00 77 1015.1
20260505075403 10 276 4.8 17.7 0.00 0.00 0.00 77 1015.1
20260505074524 10 294 3.2 11.3 0.00 0.00 0.00 77 1015.1
20260505073603 10 280 1.6 6.4 0.00 0.00 0.00 77 1015.1
20260505072703 10 276 0.0 3.2 0.00 0.00 0.00 77 1015.1
20260505071824 10 292 4.8 12.9 0.00 0.00 0.00 75 1015.2
20260505070903 10 295 8.0 16.1 0.00 0.00 0.00 74 1015.4
20260505070003 10 302 12.9 24.1 0.00 0.00 0.00 76 1015.4
20260505065403 10 302 11.3 20.9 0.00 0.00 0.00 76 1015.3
20260505064503 10 299 8.0 16.1 0.00 0.00 0.00 77 1015.3
20260505063624 10 295 9.7 19.3 0.00 0.00 0.00 77 1015.3
20260505062724 10 290 9.7 17.7 0.00 0.00 0.00 77 1015.2
20260505061824 10 287 8.0 17.7 0.00 0.00 0.00 76 1015.2
20260505060903 10 284 8.0 19.3 0.00 0.00 0.00 74 1015.2
20260505060003 10 291 8.0 17.7 0.00 0.00 0.00 77 1015.1
20260505055403 10 294 6.4 19.3 0.00 0.00 0.00 78 1015.1
20260505054503 10 297 6.4 19.3 0.00 0.00 0.00 78 1014.9
20260505053603 10 287 6.4 17.7 0.00 0.00 0.00 78 1015.0
20260505052703 10 290 6.4 14.5 0.00 0.00 0.00 78 1015.0
20260505051803 10 292 6.4 14.5 0.00 0.00 0.00 78 1014.9
20260505050903 10 289 8.0 14.5 0.00 0.00 0.00 78 1014.9
20260505040924 8 281 4.8 12.9 0.00 0.00 0.00 79 1014.9
20260505040024 8 297 6.4 16.1 0.00 0.00 0.00 79 1014.8
20260505035424 8 296 6.4 14.5 0.00 0.00 0.00 80 1014.7
20260505034503 8 295 6.4 12.9 0.00 0.00 0.00 79 1014.7
20260505033624 8 287 6.4 12.9 0.00 0.00 0.00 79 1014.9
20260505032703 8 285 6.4 16.1 0.00 0.00 0.00 79 1014.9